Home   Weather   Kitchener   Past weeks

Flag for Canada Past Weather in Kitchener, Ontario, Canada — Yesterday and Last 2 Weeks

Now
63 °F

Overcast.


Feels Like: 63 °F
Forecast: 48 / 69 °F
Wind: 9 mph from Southeast

Location: Waterloo Well

Current Time: Apr 26, 2017 at 2:14:30 pm

Latest Report: Apr 26, 2017 at 1:00 pm


Visibility: 9 mi

Pressure: 29.76 "Hg

Humidity: 73%

Dew Point: 54 °F

Location of KitchenerLocation

Past Weather in Kitchener — Graph

°F

Kitchener Temperature Yesterday

Maximum temperature yesterday: 52 °F (at 4:00 pm)
Minimum temperature yesterday: 41 °F (at 4:00 am)
Average temperature yesterday: 46 °F

High & Low Weather Summary for the Past Weeks

 TemperatureHumidityPressure
High72 °F (Apr 15, 4:00 pm)100% (Apr 20, 3:53 pm)30.54 "Hg (Apr 20, 3:53 pm)
Low28 °F (Apr 18, 6:00 am)25% (Apr 14, 4:00 pm)29.72 "Hg (Apr 16, 11:00 am)
Average48 °F75%30.07 "Hg
* Reported Apr 11 1:00 pm — Apr 26 1:00 pm, Kitchener, Weather by CustomWeather, © 2017

Note: Actual official high and low records may vary slightly from our data, if they occured in-between our weather recording intervals... More about our weather records

Advertising

Kitchener Weather History for the Previous 24 Hours

Scroll right to see more
 ConditionsComfort  
Time TempWeatherWind HumidityBarometerVisibility
1:00 pm
Wed, Apr 26
63 °FOvercast.9 mph73%29.76 "Hg9 mi
12:00 pm59 °FOvercast.8 mph82%29.79 "Hg9 mi
11:14 am55 °FMostly cloudy.9 mph88%29.80 "Hg9 mi
11:00 am55 °FMore clouds than sun.9 mph88%29.80 "Hg8 mi
10:54 am55 °FMore clouds than sun.12 mph88%29.80 "Hg8 mi
10:22 am54 °FLow clouds.6 mph88%29.81 "Hg7 mi
10:00 am52 °FFog.3 mph94%29.82 "Hg6 mi
9:47 am52 °FFog.6 mph94%29.82 "Hg6 mi
9:08 am50 °FFog.7 mph100%29.81 "Hg3 mi
8:39 am50 °FFog.7 mph100%29.80 "Hg1 mi
8:00 am48 °FFog.7 mph100%29.80 "Hg0 mi
7:57 am48 °FFog.7 mph100%29.80 "Hg0 mi
7:21 am48 °FLight rain. Fog.7 mph100%29.80 "Hg0 mi
7:00 am48 °FFog.6 mph100%29.80 "Hg0 mi
6:16 am48 °FFog.7 mph94%29.80 "Hg1 mi
5:56 am46 °FFog.3 mph100%29.80 "Hg2 mi
5:39 am46 °FFog.7 mph93%29.79 "Hg2 mi
5:00 am48 °FFog.5 mph94%29.80 "Hg5 mi
4:19 am48 °FFog.3 mph94%29.80 "Hg5 mi
4:00 am48 °FOvercast.6 mph100%29.80 "Hg7 mi
3:00 am48 °FFog.5 mph94%29.82 "Hg6 mi
2:37 am48 °FFog.6 mph94%29.82 "Hg6 mi
2:00 am48 °FFog.3 mph94%29.83 "Hg5 mi
1:00 am46 °FFog.7 mph100%29.83 "Hg5 mi
12:50 am48 °FFog.6 mph94%29.83 "Hg5 mi
12:41 am48 °FFog.6 mph94%29.83 "Hg5 mi
12:00 am48 °FFog.8 mph94%29.83 "Hg3 mi
11:31 pm
Tue, Apr 25
48 °FFog.9 mph94%29.84 "Hg3 mi
11:00 pm48 °FFog.9 mph94%29.85 "Hg3 mi
10:18 pm48 °FFog.9 mph94%29.86 "Hg4 mi
10:00 pm48 °FFog.10 mph100%29.86 "Hg3 mi
9:00 pm48 °FFog.10 mph100%29.87 "Hg1 mi
8:53 pm48 °FFog.9 mph100%29.87 "Hg1 mi
8:00 pm48 °FFog.13 mph94%29.87 "Hg1 mi
7:31 pm48 °FFog.12 mph94%29.88 "Hg2 mi
7:00 pm48 °FFog.12 mph94%29.88 "Hg4 mi
6:01 pm48 °FFog.14 mph94%29.90 "Hg5 mi
5:00 pm50 °FLow clouds.13 mph88%29.90 "Hg8 mi
4:00 pm52 °FLow clouds.9 mph88%29.91 "Hg9 mi
3:00 pm50 °FLow clouds.13 mph88%29.93 "Hg9 mi
2:00 pm48 °FLow clouds.15 mph94%29.93 "Hg9 mi
Weather by CustomWeather, © 2017

See weather overviewHow to use our weather pages